[[{"header":{"parameterUnit":"m.s-1","parameterCategory":1,"la1":30.2991,"la2":30.254,"lo1":-89.0895,"lo2":-89.0444,"dy":0.0017,"dx":0.0017,"nx":28,"ny":28,"refTime":"2025-03-05T09:00:00:Z","depth":0,"parameterNumber":2,"parameterNumberName":"U-component_of_WINDS"},"data":[0,0,0,0,0,0,0,0,0,0,0,0,0,0,0,0,0,0,0,0,0,0,0,0,0,0,0,0,0,0,0,0,0,0,0,0,0,0,0,0,0,0,0,0,0,0,0,0,0,0,0,0,0,0,0,0,0,0,2.6059,2.6059,0,2.6127,2.6128,2.6128,2.6111,2.611,2.6108,2.6107,2.6176,2.6179,2.6182,0,0,0,0,0,0,0,0,0,0,0,0,0,2.5913,2.5916,2.6059,2.6059,2.606,2.6127,2.6128,2.6129,2.6111,2.6109,2.6108,2.6106,2.6175,2.6179,2.6182,0,0,0,0,0,0,0,0,0,0,0,0,0,2.5978,2.5917,2.6058,2.606,2.606,2.6127,2.6128,2.6129,2.6111,2.6109,2.6107,2.6106,2.6174,2.6178,2.6183,2.6252,0,0,2.6197,2.6199,0,0,0,0,0,0,0,0,2.5975,2.5984,2.6059,2.606,2.6061,2.6108,2.6102,2.617,2.6112,2.6092,2.6107,2.6105,2.6155,2.6161,2.6178,2.6255,2.6258,2.6197,2.62,2.6202,2.6203,0,0,0,0,0,0,0,2.597,2.5981,2.6086,2.606,2.6061,2.6057,2.6064,2.6115,2.6134,2.6094,2.6093,2.6101,2.6155,2.6174,2.618,2.6259,2.6197,2.6201,2.6204,2.6206,2.6396,2.6398,0,0,0,0,0,0,2.5965,2.5977,2.6083,2.6088,2.6012,2.6061,2.6069,2.6095,2.6133,2.6137,2.6103,2.61,2.6167,2.6174,2.6182,2.6265,2.6202,2.6206,2.6209,2.6394,2.6397,2.6399,0,0,0,0,0,0,2.5962,2.5975,2.6081,2.6032,2.6045,2.6066,2.6095,2.6097,2.6116,2.614,2.6143,2.6118,2.6166,2.6176,2.6235,2.6267,2.6208,2.6213,2.6391,2.6395,2.6398,2.6432,0,0,0,0,0,0,2.5958,2.5974,2.6,2.6033,2.6048,2.6132,2.6097,2.61,2.6124,2.6121,2.6155,2.6159,2.6165,2.6228,2.6239,2.6273,2.6216,2.6388,2.6393,2.6397,2.6428,2.6437,2.6444,0,0,0,0,0,2.5953,2.6007,2.6001,2.6014,2.6081,2.6134,2.6143,2.6148,2.6127,2.6154,2.6169,2.6158,2.6262,2.6234,2.6247,2.6282,2.6386,2.6391,2.6396,2.6425,2.6435,2.6443,0,0,0,0,0,0,2.5976,2.6011,2.6005,2.6072,2.61,2.6131,2.6165,2.6159,2.6193,2.6189,2.6194,2.6202,2.6263,2.6279,2.6246,2.6351,2.6321,2.6329,2.6338,2.6348,2.6356,2.635,2.622,0,0,0,0,0,2.5989,2.6029,2.6057,2.6113,2.6128,2.6144,2.6167,2.6169,2.6199,2.6211,2.623,2.626,2.6299,2.6325,2.6362,2.6431,2.6438,2.6462,2.6469,2.6475,2.6482,2.652,2.6531,2.6416,2.6416,2.6416,0,0,2.6016,2.604,2.6065,2.6119,2.6141,2.6182,2.6154,2.6199,2.623,2.6217,2.6274,2.629,2.6323,2.6388,2.6417,2.6402,2.6515,2.6482,2.6487,2.649,2.6526,2.6537,2.6547,2.6419,2.6419,2.6418,0,0,2.6087,2.6109,2.6158,2.6181,2.6216,2.6226,2.6238,2.627,2.6281,2.6338,2.633,2.6367,2.6434,2.6458,2.6479,2.656,2.6551,2.6572,2.6611,2.6648,2.6657,2.6665,2.6694,2.6704,2.6579,2.6579,2.6579,0,2.6116,2.6178,2.6184,2.623,2.6253,2.6245,2.6295,2.6317,2.6362,2.6379,2.6362,2.6447,2.6469,2.6539,2.6559,2.6576,2.659,2.6568,2.6656,2.6664,2.6671,2.6699,2.671,2.6581,2.6581,2.6581,2.6581,0,2.6212,2.6255,2.6291,2.6335,2.6363,2.641,2.6424,2.6451,2.6451,2.6464,2.6523,2.6549,2.6591,2.6608,2.6609,2.6679,2.6669,2.6654,2.6624,2.6685,2.671,2.6721,2.6585,2.6584,2.6583,2.6582,0,0,2.6297,2.6345,2.6358,2.6378,2.6416,2.645,2.6497,2.654,2.6563,2.6595,2.6635,2.6693,2.668,2.6704,2.6707,2.674,2.6802,2.6721,2.6722,2.6735,2.6881,2.6891,2.6903,2.6797,2.6799,2.6801,2.6878,0,2.637,2.6454,2.6462,2.6537,2.6577,2.657,2.6612,2.664,2.6653,2.6689,2.6704,2.6745,2.6725,2.6739,2.6771,2.6788,2.6832,2.6783,2.6834,2.6836,2.6825,2.6917,2.6928,2.6999,2.6889,2.689,2.6891,0,2.6467,2.6502,2.6581,2.6614,2.6631,2.6669,2.6708,2.6743,2.6775,2.6783,2.681,2.6809,2.6858,2.6827,2.6895,2.6862,2.6883,2.6895,2.6898,2.6902,2.6866,2.6923,2.7022,2.7033,2.6908,2.6906,2.6905,0,2.652,2.6588,2.6644,2.6661,2.6702,2.6728,2.6746,2.6776,2.6801,2.6836,2.6853,2.6893,2.6915,2.6946,2.6956,2.6933,2.7024,2.6993,2.7031,2.7031,2.7049,2.7048,2.7153,2.7065,2.7065,2.7065,2.7064,0,2.6601,2.6649,2.6669,2.6703,2.6758,2.6766,2.682,2.6837,2.6864,2.6901,2.6899,2.6934,2.6945,2.6983,2.6991,2.7046,2.7056,2.7064,2.7065,2.7063,2.7062,2.7077,2.7072,2.7068,2.7067,2.7066,2.7066,0,2.6669,2.6684,2.6745,2.6779,2.6788,2.6827,2.6856,2.6889,2.6903,2.695,2.6962,2.6983,2.7027,2.7041,2.7094,2.71,2.7164,2.7161,2.7153,2.7153,2.7189,2.7185,2.7307,2.7323,2.7225,2.7226,2.7227,0,2.6719,2.6756,2.6794,2.682,2.6839,2.688,2.6906,2.6916,2.6943,2.6983,2.7012,2.7056,2.7091,2.7162,2.7182,2.7223,2.7221,2.726,2.7227,2.7224,2.722,2.7218,2.7221,2.7266,2.7267,2.7268,2.7269,0,2.6806,2.6812,2.6849,2.689,2.6921,2.6954,2.6985,2.7006,2.7021,2.7052,2.7097,2.7125,2.7179,2.7223,2.7265,2.7283,2.7279,2.728,2.729,2.7288,2.7282,2.7285,2.7169,2.7276,2.7276,2.7275,2.7275,2.7274,2.6866,2.6899,2.6931,2.6973,2.6998,2.7028,2.7061,2.7079,2.7117,2.7162,2.7167,2.7216,2.7248,2.7303,2.7324,2.7363,2.7351,2.7367,2.7371,2.7374,2.7377,2.7277,2.7371,2.737,2.737,2.737,2.737,0,2.6952,2.6972,2.7011,2.7055,2.7089,2.7083,2.7117,2.7145,2.7189,2.7219,2.7255,2.7307,2.735,2.7374,2.7416,2.7443,2.7442,2.7453,2.7451,2.7455,2.7385,2.7371,2.7453,2.7453,2.7453,2.7453,2.7453,2.7453,2.7,2.7056,2.7066,2.7134,2.7154,2.7202,2.7223,2.725,2.7274,2.7333,2.7369,2.7384,2.7412,2.7457,2.7496,2.7502,2.7518,2.7531,2.7535,2.7469,2.746,2.7452,2.7439,2.7534,2.7534,2.7602,2.7603,2.7603]},{"header":{"parameterUnit":"m.s-1","parameterCategory":1,"la1":30.2991,"la2":30.254,"lo1":-89.0895,"lo2":-89.0444,"dy":0.0017,"dx":0.0017,"nx":28,"ny":28,"refTime":"2025-03-05T09:00:00:Z","depth":0,"parameterNumber":3,"parameterNumberName":"V-component_of_WINDS"},"data":[0,0,0,0,0,0,0,0,0,0,0,0,0,0,0,0,0,0,0,0,0,0,0,0,0,0,0,0,0,0,0,0,0,0,0,0,0,0,0,0,0,0,0,0,0,0,0,0,0,0,0,0,0,0,0,0,0,0,-5.138,-5.1383,0,-5.1636,-5.1639,-5.1642,-5.1621,-5.1618,-5.1614,-5.161,-5.1874,-5.1885,-5.1895,0,0,0,0,0,0,0,0,0,0,0,0,0,-5.0877,-5.0886,-5.138,-5.1383,-5.1386,-5.1636,-5.1639,-5.1643,-5.1622,-5.1617,-5.1613,-5.1608,-5.1871,-5.1883,-5.1896,0,0,0,0,0,0,0,0,0,0,0,0,0,-5.111,-5.0889,-5.1379,-5.1406,-5.1411,-5.1635,-5.1639,-5.1644,-5.1623,-5.1617,-5.1611,-5.1606,-5.1867,-5.1882,-5.1898,-5.2112,0,0,-5.1947,-5.1954,0,0,0,0,0,0,0,0,-5.1097,-5.1129,-5.1399,-5.1405,-5.1411,-5.1591,-5.1559,-5.1801,-5.1625,-5.1543,-5.161,-5.1603,-5.1785,-5.1807,-5.1868,-5.2125,-5.2136,-5.1948,-5.1958,-5.1965,-5.1969,0,0,0,0,0,0,0,-5.1081,-5.1118,-5.1481,-5.1403,-5.141,-5.1406,-5.1433,-5.1604,-5.1693,-5.1549,-5.1548,-5.1579,-5.1787,-5.1853,-5.1874,-5.214,-5.1948,-5.1962,-5.1972,-5.1978,-5.2588,-5.2594,0,0,0,0,0,0,-5.1058,-5.1104,-5.1473,-5.1489,-5.1236,-5.142,-5.145,-5.1539,-5.1691,-5.1709,-5.1584,-5.1577,-5.1828,-5.1855,-5.1883,-5.2146,-5.1964,-5.1979,-5.1989,-5.2581,-5.2589,-5.2597,0,0,0,0,0,0,-5.1048,-5.1091,-5.1463,-5.1297,-5.1344,-5.1435,-5.1535,-5.1547,-5.1613,-5.1717,-5.1733,-5.1634,-5.1825,-5.1861,-5.2056,-5.2155,-5.1987,-5.2001,-5.2574,-5.2584,-5.2593,-5.2673,0,0,0,0,0,0,-5.1033,-5.1088,-5.1169,-5.1299,-5.1353,-5.1631,-5.1541,-5.1556,-5.164,-5.1634,-5.1769,-5.1786,-5.1823,-5.2032,-5.2072,-5.2174,-5.2014,-5.2565,-5.2578,-5.259,-5.2662,-5.2684,-5.2704,0,0,0,0,0,-5.1015,-5.1182,-5.1174,-5.1218,-5.1457,-5.1637,-5.1668,-5.1706,-5.1648,-5.1732,-5.1799,-5.1781,-5.2137,-5.2052,-5.2097,-5.2205,-5.2559,-5.2574,-5.2589,-5.2653,-5.268,-5.2703,0,0,0,0,0,0,-5.1062,-5.1199,-5.1192,-5.1404,-5.1509,-5.1633,-5.1739,-5.1734,-5.1858,-5.1847,-5.189,-5.1921,-5.2118,-5.2181,-5.2083,-5.2422,-5.2341,-5.2365,-5.2374,-5.2401,-5.2421,-5.2403,-5.2027,0,0,0,0,0,-5.1097,-5.1231,-5.1344,-5.1521,-5.1573,-5.1647,-5.1727,-5.1748,-5.1858,-5.1903,-5.1984,-5.2093,-5.2229,-5.2318,-5.2449,-5.267,-5.2701,-5.2767,-5.2788,-5.2804,-5.2826,-5.295,-5.2981,-5.2646,-5.2645,-5.2645,0,0,-5.1171,-5.1262,-5.1344,-5.1533,-5.1616,-5.1755,-5.1685,-5.1834,-5.1939,-5.1926,-5.2115,-5.2179,-5.2303,-5.2513,-5.2609,-5.2571,-5.2925,-5.2823,-5.2836,-5.2849,-5.2968,-5.3,-5.3028,-5.2656,-5.2654,-5.2652,0,0,-5.1378,-5.1459,-5.1617,-5.1702,-5.1829,-5.1877,-5.1915,-5.204,-5.2082,-5.2273,-5.2266,-5.2391,-5.2624,-5.2714,-5.279,-5.3031,-5.302,-5.3072,-5.3182,-5.3302,-5.3329,-5.3353,-5.3441,-5.3472,-5.3093,-5.3093,-5.3093,0,-5.1454,-5.1662,-5.1698,-5.185,-5.1934,-5.1928,-5.2089,-5.217,-5.2334,-5.2392,-5.2347,-5.2641,-5.2724,-5.2956,-5.3015,-5.3075,-5.3121,-5.3058,-5.3322,-5.3346,-5.3369,-5.3454,-5.3486,-5.3098,-5.3098,-5.3097,-5.3097,0,-5.1751,-5.1896,-5.2008,-5.2166,-5.2262,-5.2417,-5.2479,-5.2572,-5.2584,-5.2638,-5.2833,-5.2932,-5.3084,-5.314,-5.3154,-5.3375,-5.3348,-5.3312,-5.3231,-5.3406,-5.3486,-5.3519,-5.3107,-5.3105,-5.3103,-5.3101,0,0,-5.1995,-5.2171,-5.2212,-5.2285,-5.2425,-5.2538,-5.2693,-5.2842,-5.2922,-5.3035,-5.3168,-5.3366,-5.3334,-5.3421,-5.3444,-5.3549,-5.3737,-5.3501,-5.3505,-5.3543,-5.3989,-5.4017,-5.4054,-5.373,-5.3736,-5.3741,-5.398,0,-5.2217,-5.2493,-5.253,-5.2774,-5.291,-5.2906,-5.3042,-5.3143,-5.3198,-5.3321,-5.3381,-5.3522,-5.3468,-5.352,-5.3624,-5.3692,-5.3827,-5.3675,-5.3856,-5.3862,-5.3827,-5.4096,-5.4125,-5.4346,-5.4011,-5.4016,-5.402,0,-5.2514,-5.2635,-5.2892,-5.3015,-5.3074,-5.3195,-5.3335,-5.3452,-5.3568,-5.36,-5.3697,-5.3707,-5.387,-5.3781,-5.4007,-5.3903,-5.3979,-5.4024,-5.4034,-5.4054,-5.3953,-5.4125,-5.4416,-5.445,-5.407,-5.4066,-5.4062,0,-5.2669,-5.2896,-5.308,-5.3142,-5.3289,-5.3375,-5.3441,-5.355,-5.3638,-5.376,-5.3817,-5.3957,-5.4034,-5.4143,-5.4192,-5.4122,-5.4416,-5.433,-5.4449,-5.4448,-5.4512,-5.4508,-5.4822,-5.4558,-5.4557,-5.4556,-5.4556,0,-5.2914,-5.3073,-5.3152,-5.3266,-5.3444,-5.3486,-5.3661,-5.3724,-5.3821,-5.3948,-5.3953,-5.4072,-5.4128,-5.4256,-5.4295,-5.4478,-5.4512,-5.4544,-5.4553,-5.4545,-5.4542,-5.4597,-5.4584,-5.4565,-5.4563,-5.4562,-5.456,0,-5.3119,-5.3178,-5.3379,-5.3502,-5.3536,-5.3662,-5.3768,-5.3879,-5.3932,-5.4092,-5.4133,-5.4216,-5.4367,-5.4426,-5.4611,-5.4637,-5.4849,-5.4844,-5.481,-5.4813,-5.4929,-5.4918,-5.5292,-5.5344,-5.5042,-5.5045,-5.5048,0,-5.3273,-5.3394,-5.353,-5.3615,-5.3684,-5.382,-5.391,-5.3956,-5.4049,-5.419,-5.4284,-5.4435,-5.4558,-5.48,-5.4878,-5.502,-5.502,-5.5141,-5.5042,-5.503,-5.5025,-5.5018,-5.5032,-5.516,-5.5163,-5.5166,-5.5168,0,-5.354,-5.3564,-5.3692,-5.3831,-5.3937,-5.4049,-5.4158,-5.4227,-5.429,-5.4394,-5.4549,-5.4644,-5.4833,-5.4983,-5.5129,-5.5198,-5.5195,-5.5198,-5.5234,-5.5228,-5.5204,-5.5222,-5.4863,-5.519,-5.5188,-5.5186,-5.5185,-5.5184,-5.3726,-5.3835,-5.3948,-5.4091,-5.4178,-5.4279,-5.439,-5.4457,-5.4586,-5.4743,-5.4762,-5.4929,-5.5043,-5.5238,-5.5313,-5.5445,-5.5413,-5.5464,-5.5477,-5.549,-5.5499,-5.5181,-5.5471,-5.5471,-5.547,-5.547,-5.5469,0,-5.3997,-5.4069,-5.42,-5.4352,-5.4465,-5.445,-5.457,-5.4666,-5.4812,-5.4918,-5.5039,-5.5218,-5.5364,-5.5453,-5.56,-5.5689,-5.5691,-5.5726,-5.5721,-5.5738,-5.5518,-5.5474,-5.5722,-5.5722,-5.5722,-5.5722,-5.5722,-5.5721,-5.4151,-5.4335,-5.4372,-5.46,-5.4671,-5.4834,-5.4904,-5.4999,-5.5084,-5.5283,-5.5404,-5.546,-5.5561,-5.5715,-5.5849,-5.5872,-5.5927,-5.5965,-5.5986,-5.5779,-5.5753,-5.5728,-5.5687,-5.5976,-5.5976,-5.6195,-5.6197,-5.6199]}]]